[[{"header":{"parameterUnit":"m.s-1","parameterCategory":1,"la1":30.2991,"la2":30.254,"lo1":-89.0895,"lo2":-89.0444,"dy":0.0017,"dx":0.0017,"nx":28,"ny":28,"refTime":"2025-09-04T03:00:00:Z","depth":0,"parameterNumber":2,"parameterNumberName":"U-component_of_WINDS"},"data":[0,0,0,0,0,0,0,0,0,0,0,0,0,0,0,0,0,0,0,0,0,0,0,0,0,0,0,0,0,0,0,0,0,0,0,0,0,0,0,0,0,0,0,0,0,0,0,0,0,0,0,0,0,0,0,0,0,0,-0.4171,-0.4172,0,-0.4191,-0.4192,-0.4192,-0.4191,-0.4191,-0.419,-0.419,-0.421,-0.4211,-0.4212,0,0,0,0,0,0,0,0,0,0,0,0,0,-0.4131,-0.4132,-0.4171,-0.4172,-0.4172,-0.4191,-0.4192,-0.4192,-0.4191,-0.4191,-0.419,-0.419,-0.421,-0.4211,-0.4212,0,0,0,0,0,0,0,0,0,0,0,0,0,-0.415,-0.4132,-0.4171,-0.4174,-0.4174,-0.4191,-0.4192,-0.4192,-0.4191,-0.4191,-0.419,-0.419,-0.4209,-0.4211,-0.4212,-0.4227,0,0,-0.4215,-0.4216,0,0,0,0,0,0,0,0,-0.4149,-0.4151,-0.4173,-0.4174,-0.4174,-0.4188,-0.4185,-0.4204,-0.4191,-0.4185,-0.419,-0.419,-0.4203,-0.4205,-0.4209,-0.4228,-0.4229,-0.4216,-0.4216,-0.4217,-0.4217,0,0,0,0,0,0,0,-0.4147,-0.415,-0.4179,-0.4173,-0.4174,-0.4174,-0.4176,-0.4188,-0.4196,-0.4185,-0.4185,-0.4188,-0.4203,-0.4208,-0.421,-0.423,-0.4215,-0.4217,-0.4217,-0.4218,-0.4262,-0.4262,0,0,0,0,0,0,-0.4146,-0.4149,-0.4179,-0.418,-0.416,-0.4175,-0.4177,-0.4184,-0.4196,-0.4197,-0.4188,-0.4187,-0.4206,-0.4208,-0.4211,-0.4229,-0.4217,-0.4218,-0.4219,-0.4261,-0.4262,-0.4262,0,0,0,0,0,0,-0.4145,-0.4148,-0.4178,-0.4165,-0.4168,-0.4176,-0.4184,-0.4185,-0.419,-0.4198,-0.4199,-0.4192,-0.4206,-0.4209,-0.4223,-0.423,-0.4218,-0.4219,-0.4261,-0.4261,-0.4262,-0.4267,0,0,0,0,0,0,-0.4144,-0.4148,-0.4154,-0.4165,-0.4169,-0.419,-0.4184,-0.4185,-0.4192,-0.4191,-0.4202,-0.4203,-0.4206,-0.4221,-0.4224,-0.4231,-0.422,-0.426,-0.4261,-0.4262,-0.4267,-0.4268,-0.4269,0,0,0,0,0,-0.4142,-0.4155,-0.4155,-0.4158,-0.4177,-0.4191,-0.4193,-0.4197,-0.4192,-0.4199,-0.4204,-0.4203,-0.4229,-0.4223,-0.4226,-0.4234,-0.426,-0.4261,-0.4262,-0.4266,-0.4268,-0.4269,0,0,0,0,0,0,-0.4145,-0.4157,-0.4156,-0.4173,-0.4181,-0.4191,-0.4199,-0.4198,-0.4208,-0.4207,-0.4211,-0.4213,-0.4227,-0.4232,-0.4225,-0.4249,-0.4244,-0.4245,-0.4246,-0.4248,-0.4249,-0.4247,-0.4221,0,0,0,0,0,-0.4148,-0.4158,-0.4167,-0.4181,-0.4185,-0.4191,-0.4197,-0.4199,-0.4208,-0.4211,-0.4217,-0.4225,-0.4235,-0.4242,-0.4251,-0.4267,-0.4269,-0.4274,-0.4275,-0.4276,-0.4278,-0.4286,-0.4288,-0.4266,-0.4266,-0.4266,0,0,-0.4153,-0.4161,-0.4167,-0.4182,-0.4188,-0.4199,-0.4194,-0.4205,-0.4213,-0.4213,-0.4226,-0.4231,-0.424,-0.4255,-0.4262,-0.426,-0.4285,-0.4278,-0.4279,-0.4279,-0.4288,-0.429,-0.4292,-0.4266,-0.4266,-0.4266,0,0,-0.4169,-0.4175,-0.4187,-0.4194,-0.4204,-0.4208,-0.421,-0.422,-0.4223,-0.4237,-0.4237,-0.4246,-0.4263,-0.4269,-0.4275,-0.4292,-0.4291,-0.4295,-0.4302,-0.431,-0.4312,-0.4314,-0.4319,-0.4321,-0.4296,-0.4296,-0.4296,0,-0.4174,-0.419,-0.4193,-0.4205,-0.4211,-0.4211,-0.4223,-0.4229,-0.4241,-0.4246,-0.4242,-0.4264,-0.427,-0.4286,-0.429,-0.4295,-0.4298,-0.4294,-0.4312,-0.4313,-0.4315,-0.432,-0.4322,-0.4297,-0.4296,-0.4296,-0.4296,0,-0.4196,-0.4207,-0.4216,-0.4228,-0.4235,-0.4246,-0.4251,-0.4258,-0.4259,-0.4263,-0.4277,-0.4284,-0.4295,-0.4299,-0.43,-0.4315,-0.4313,-0.4311,-0.4305,-0.4317,-0.4322,-0.4325,-0.4297,-0.4297,-0.4297,-0.4297,0,0,-0.4214,-0.4228,-0.4231,-0.4236,-0.4246,-0.4255,-0.4266,-0.4277,-0.4282,-0.4291,-0.43,-0.4314,-0.4312,-0.4318,-0.432,-0.4327,-0.4339,-0.4324,-0.4324,-0.4326,-0.4356,-0.4358,-0.436,-0.4339,-0.4339,-0.434,-0.4355,0,-0.4231,-0.4251,-0.4254,-0.4271,-0.4281,-0.4281,-0.4291,-0.4298,-0.4302,-0.4311,-0.4315,-0.4325,-0.4321,-0.4325,-0.4332,-0.4336,-0.4345,-0.4335,-0.4347,-0.4348,-0.4345,-0.4363,-0.4365,-0.438,-0.4357,-0.4358,-0.4358,0,-0.4252,-0.4261,-0.428,-0.4289,-0.4293,-0.4302,-0.4311,-0.432,-0.4328,-0.433,-0.4337,-0.4337,-0.4349,-0.4342,-0.4358,-0.4351,-0.4356,-0.4359,-0.4359,-0.436,-0.4354,-0.4365,-0.4384,-0.4386,-0.4361,-0.4361,-0.4361,0,-0.4263,-0.428,-0.4293,-0.4298,-0.4308,-0.4314,-0.4319,-0.4327,-0.4333,-0.4341,-0.4345,-0.4354,-0.436,-0.4367,-0.437,-0.4365,-0.4385,-0.4379,-0.4387,-0.4387,-0.4391,-0.4391,-0.4411,-0.4394,-0.4394,-0.4394,-0.4394,0,-0.4281,-0.4293,-0.4298,-0.4306,-0.4319,-0.4322,-0.4334,-0.4339,-0.4345,-0.4354,-0.4354,-0.4362,-0.4366,-0.4374,-0.4377,-0.4389,-0.4391,-0.4393,-0.4394,-0.4393,-0.4393,-0.4396,-0.4396,-0.4395,-0.4394,-0.4394,-0.4394,0,-0.4296,-0.43,-0.4314,-0.4323,-0.4326,-0.4334,-0.4342,-0.4349,-0.4353,-0.4364,-0.4366,-0.4372,-0.4382,-0.4386,-0.4398,-0.4399,-0.4413,-0.4413,-0.4411,-0.4411,-0.4418,-0.4417,-0.4442,-0.4445,-0.4426,-0.4426,-0.4426,0,-0.4307,-0.4316,-0.4325,-0.4331,-0.4336,-0.4345,-0.4351,-0.4355,-0.4361,-0.437,-0.4377,-0.4387,-0.4395,-0.4411,-0.4415,-0.4425,-0.4424,-0.4432,-0.4426,-0.4425,-0.4424,-0.4424,-0.4425,-0.4434,-0.4434,-0.4434,-0.4434,0,-0.4326,-0.4328,-0.4336,-0.4346,-0.4353,-0.4361,-0.4368,-0.4373,-0.4377,-0.4384,-0.4395,-0.4401,-0.4413,-0.4423,-0.4432,-0.4436,-0.4436,-0.4436,-0.4438,-0.4438,-0.4436,-0.4437,-0.4414,-0.4436,-0.4436,-0.4435,-0.4435,-0.4435,-0.4339,-0.4347,-0.4354,-0.4364,-0.437,-0.4377,-0.4384,-0.4389,-0.4397,-0.4408,-0.4409,-0.442,-0.4427,-0.4439,-0.4444,-0.4452,-0.445,-0.4454,-0.4454,-0.4455,-0.4456,-0.4435,-0.4454,-0.4454,-0.4454,-0.4454,-0.4454,0,-0.4358,-0.4363,-0.4372,-0.4382,-0.439,-0.4389,-0.4397,-0.4403,-0.4413,-0.442,-0.4427,-0.4439,-0.4448,-0.4454,-0.4463,-0.4468,-0.4468,-0.4471,-0.447,-0.4471,-0.4457,-0.4454,-0.4471,-0.4471,-0.4471,-0.4471,-0.4471,-0.4471,-0.4369,-0.4382,-0.4384,-0.4399,-0.4404,-0.4415,-0.4419,-0.4426,-0.4431,-0.4444,-0.4452,-0.4455,-0.4461,-0.4471,-0.4479,-0.448,-0.4484,-0.4486,-0.4487,-0.4474,-0.4472,-0.4471,-0.4468,-0.4487,-0.4487,-0.4501,-0.4501,-0.4501]},{"header":{"parameterUnit":"m.s-1","parameterCategory":1,"la1":30.2991,"la2":30.254,"lo1":-89.0895,"lo2":-89.0444,"dy":0.0017,"dx":0.0017,"nx":28,"ny":28,"refTime":"2025-09-04T03:00:00:Z","depth":0,"parameterNumber":3,"parameterNumberName":"V-component_of_WINDS"},"data":[0,0,0,0,0,0,0,0,0,0,0,0,0,0,0,0,0,0,0,0,0,0,0,0,0,0,0,0,0,0,0,0,0,0,0,0,0,0,0,0,0,0,0,0,0,0,0,0,0,0,0,0,0,0,0,0,0,0,0.4419,0.4419,0,0.4376,0.4375,0.4375,0.4375,0.4375,0.4376,0.4376,0.4331,0.433,0.4328,0,0,0,0,0,0,0,0,0,0,0,0,0,0.4502,0.45,0.4419,0.4419,0.4418,0.4376,0.4375,0.4374,0.4375,0.4375,0.4376,0.4377,0.4332,0.433,0.4328,0,0,0,0,0,0,0,0,0,0,0,0,0,0.4463,0.45,0.4419,0.4413,0.4412,0.4376,0.4375,0.4374,0.4375,0.4375,0.4376,0.4377,0.4332,0.433,0.4327,0.4294,0,0,0.4319,0.4318,0,0,0,0,0,0,0,0,0.4465,0.446,0.4414,0.4413,0.4412,0.4381,0.4388,0.4347,0.4374,0.4389,0.4376,0.4377,0.4347,0.4343,0.4333,0.4292,0.429,0.4319,0.4318,0.4317,0.4316,0,0,0,0,0,0,0,0.4468,0.4462,0.4402,0.4414,0.4412,0.4412,0.4408,0.438,0.4364,0.4388,0.4387,0.4382,0.4347,0.4336,0.4332,0.429,0.4319,0.4317,0.4315,0.4314,0.4218,0.4217,0,0,0,0,0,0,0.4472,0.4464,0.4403,0.4401,0.4441,0.441,0.4405,0.439,0.4364,0.4361,0.4382,0.4383,0.434,0.4335,0.4331,0.429,0.4317,0.4314,0.4313,0.4219,0.4218,0.4217,0,0,0,0,0,0,0.4473,0.4466,0.4405,0.4432,0.4424,0.4408,0.4391,0.4389,0.4378,0.436,0.4357,0.4374,0.434,0.4334,0.4303,0.4288,0.4313,0.4311,0.4221,0.4219,0.4218,0.4208,0,0,0,0,0,0,0.4476,0.4467,0.4454,0.4432,0.4423,0.4378,0.4391,0.4388,0.4374,0.4375,0.4351,0.4348,0.4341,0.4307,0.4301,0.4285,0.4309,0.4222,0.422,0.4218,0.4209,0.4206,0.4203,0,0,0,0,0,0.4479,0.4453,0.4454,0.4446,0.4407,0.4378,0.4372,0.4364,0.4373,0.436,0.4348,0.4349,0.4291,0.4304,0.4297,0.428,0.4223,0.422,0.4218,0.4211,0.4207,0.4203,0,0,0,0,0,0,0.4474,0.445,0.445,0.4417,0.4399,0.4378,0.4361,0.4361,0.434,0.4342,0.4332,0.4327,0.4296,0.4285,0.43,0.4246,0.4258,0.4254,0.4255,0.4251,0.4248,0.4251,0.4306,0,0,0,0,0,0.4469,0.4448,0.4428,0.44,0.4391,0.4378,0.4365,0.436,0.4341,0.4334,0.432,0.4301,0.4279,0.4264,0.4243,0.4208,0.4203,0.4193,0.419,0.4188,0.4184,0.4165,0.416,0.421,0.421,0.421,0,0,0.4459,0.4443,0.443,0.4399,0.4385,0.4362,0.4371,0.4347,0.433,0.433,0.43,0.4289,0.4268,0.4234,0.4219,0.4224,0.4169,0.4185,0.4183,0.4181,0.4162,0.4157,0.4153,0.4208,0.4209,0.4209,0,0,0.4428,0.4414,0.4389,0.4375,0.4354,0.4345,0.4339,0.4317,0.431,0.4279,0.4278,0.4258,0.422,0.4205,0.4192,0.4156,0.4156,0.4149,0.4133,0.4114,0.411,0.4107,0.4093,0.4089,0.4146,0.4146,0.4146,0,0.4418,0.4384,0.4377,0.4352,0.4338,0.4338,0.4312,0.4298,0.4271,0.4261,0.4268,0.422,0.4205,0.4168,0.416,0.4149,0.4142,0.4151,0.4112,0.4108,0.4104,0.4092,0.4087,0.4145,0.4145,0.4145,0.4145,0,0.4372,0.4349,0.4331,0.4305,0.4289,0.4264,0.4253,0.4238,0.4235,0.4225,0.4194,0.4177,0.4152,0.4143,0.4139,0.4105,0.4109,0.4114,0.4125,0.4099,0.4087,0.4082,0.4144,0.4144,0.4145,0.4145,0,0,0.4337,0.4307,0.43,0.4288,0.4264,0.4246,0.4221,0.4197,0.4184,0.4165,0.4144,0.4111,0.4115,0.4101,0.4096,0.408,0.4051,0.4086,0.4085,0.408,0.4012,0.4008,0.4002,0.4052,0.4051,0.405,0.4013,0,0.4303,0.4259,0.4252,0.4213,0.4191,0.419,0.4168,0.4151,0.4142,0.4121,0.4111,0.4088,0.4095,0.4087,0.407,0.4058,0.4037,0.4061,0.4031,0.403,0.4036,0.3996,0.3992,0.3958,0.4009,0.4008,0.4007,0,0.4258,0.4238,0.4197,0.4176,0.4166,0.4147,0.4124,0.4105,0.4085,0.408,0.4064,0.4061,0.4035,0.4048,0.4011,0.4027,0.4015,0.4007,0.4006,0.4002,0.4017,0.3991,0.3948,0.3942,0.4,0.4,0.4001,0,0.4235,0.4198,0.4169,0.4158,0.4133,0.412,0.4109,0.409,0.4076,0.4056,0.4046,0.4023,0.4011,0.3993,0.3984,0.3994,0.3948,0.396,0.3942,0.3942,0.3932,0.3932,0.3885,0.3925,0.3925,0.3925,0.3925,0,0.4198,0.4173,0.4158,0.414,0.4112,0.4104,0.4076,0.4065,0.4049,0.4028,0.4026,0.4007,0.3996,0.3975,0.3968,0.3939,0.3933,0.3928,0.3926,0.3927,0.3928,0.3919,0.3921,0.3923,0.3924,0.3924,0.3924,0,0.4168,0.4157,0.4125,0.4104,0.4098,0.4078,0.406,0.4042,0.4033,0.4007,0.4001,0.3986,0.3961,0.395,0.392,0.3915,0.3882,0.3882,0.3888,0.3887,0.387,0.3871,0.3814,0.3806,0.3852,0.3851,0.3851,0,0.4144,0.4125,0.4102,0.4088,0.4077,0.4055,0.404,0.4031,0.4016,0.3993,0.3978,0.3953,0.3933,0.3894,0.388,0.3857,0.3856,0.3838,0.3852,0.3855,0.3855,0.3856,0.3854,0.3835,0.3834,0.3834,0.3834,0,0.4104,0.4099,0.4078,0.4056,0.4038,0.402,0.4002,0.3991,0.3979,0.3962,0.3937,0.3922,0.3891,0.3866,0.3842,0.3831,0.383,0.3829,0.3824,0.3825,0.3829,0.3826,0.388,0.383,0.3831,0.3831,0.3831,0.3831,0.4075,0.4058,0.4039,0.4016,0.4002,0.3985,0.3967,0.3956,0.3935,0.3909,0.3905,0.3878,0.3859,0.3827,0.3814,0.3793,0.3797,0.379,0.3787,0.3785,0.3784,0.3833,0.3789,0.3789,0.3789,0.3789,0.3789,0,0.4034,0.4022,0.4001,0.3976,0.3957,0.3959,0.3939,0.3924,0.39,0.3882,0.3863,0.3834,0.381,0.3795,0.3771,0.3756,0.3756,0.375,0.3751,0.3748,0.3782,0.3789,0.3751,0.3751,0.3751,0.3751,0.3751,0.3752,0.401,0.3981,0.3974,0.3938,0.3926,0.3899,0.3888,0.3872,0.3858,0.3826,0.3806,0.3797,0.378,0.3755,0.3733,0.3729,0.372,0.3714,0.3711,0.3742,0.3746,0.375,0.3756,0.3713,0.3713,0.3679,0.3679,0.3678]}]]